Regional Weather Roundup
Issued by NWS

Home | Current Version | Previous Version | Text Only | Print | Product List | Glossary Off
Versions: 1 2 3 4 5 6 7 8 9 10 11 12 13 14 15 16 17 18 19 20 21 22 23 24 25 26 27 28 29 30 31 32 33 34 35 36 37 38 39 40 41 42 43 44 45 46 47 48 49 50

000
ASUS44 KMEG 252210
RWRTN
TENNESSEE HOURLY STATE WEATHER ROUNDUP
NATIONAL WEATHER SERVICE MEMPHIS TN
500 PM CDT SUN JUN 25 2017

TNZ002-004-019-021-049-052-054-088>092-252300-
WEST TENNESSEE

CITY           SKY/WX    TMP DP  RH WIND       PRES   REMARKS
MEMPHIS INTL   SUNNY     86  53  32 N8        30.18F
NWS MEMPHIS      N/A     84 N/A N/A MISG        N/A
JACKSON        SUNNY     84  47  27 N9        30.18F
SOMERVILLE     SUNNY     82  52  34 N7        30.18F
COVINGTON      SUNNY     82  46  28 N6        30.18F
UNION CITY     SUNNY     82  52  34 W9        30.16F
BOLIVAR        SUNNY     82  50  32 N5        30.17F
PARIS          SUNNY     81  50  34 W5        30.17F
HUNTINGDON     SUNNY     82  50  32 CALM      30.17F
LEXINGTON      SUNNY     82  50  32 N10       30.17F
SELMER         SUNNY     81  52  36 N6        30.18S
SAVANNAH       SUNNY     82  52  34 N8        30.17S
$$

TNZ008-025-027-028-033-062-065-066-252300-
NORTH MIDDLE TENNESSEE

CITY           SKY/WX    TMP DP  RH WIND       PRES   REMARKS
NASHVILLE      MOSUNNY   84  45  25 NW12      30.17F
PORTLAND       SUNNY     81  48  32 N8G14     30.16F
CLARKSVILLE    SUNNY     81  49  32 W12       30.16F
SMYRNA         SUNNY     82  50  32 NW6       30.17F
COOKEVILLE     SUNNY     79  48  34 VRB7G14   30.16F
GALLATIN       SUNNY     82  46  28 NW9       30.18F
CROSSVILLE     SUNNY     75  44  33 NW12G18   30.20F
$$

TNZ061-075-076-078-094-096-097-252300-
SOUTH MIDDLE TENNESSEE

CITY           SKY/WX    TMP DP  RH WIND       PRES   REMARKS
FAYETTEVILLE   SUNNY     79  50  36 N10G17    30.16F
TULLAHOMA      SUNNY     77  45  31 N9        30.18F
WINCHESTER     SUNNY     79  50  36 N10         N/A
MCMINNVILLE    SUNNY     79  50  36 N10       30.17F
COLUMBIA       SUNNY     82  48  30 N8        30.15F
SHELBYVILLE    SUNNY     79  50  36 N9G17     30.16F
$$

TNZ017-018-042-046-047-252300-
NORTHEAST TENNESSEE

CITY           SKY/WX    TMP DP  RH WIND       PRES   REMARKS
TRI CITIES     MOSUNNY   78  52  40 W12       30.13F
ELIZABETHTON   MOSUNNY   77  54  44 W8        30.14F
$$

TNZ012-013-036-069-073-074-252300-
CENTRAL EAST TENNESSEE

CITY           SKY/WX    TMP DP  RH WIND       PRES   REMARKS
KNOXVILLE      MOSUNNY   80  51  36 N9        30.12F
OAK RIDGE      SUNNY     82  46  28 VRB3      30.15F
DOWNTOWN KNOXV SUNNY     81  52  36 VRB3      30.13F
GATLINBURG     SUNNY     79  50  36 CALM      30.13F
MORRISTOWN     MOSUNNY   77  52  41 VRB5      30.14F
JACKSBORO      SUNNY     79  46  31 CALM      30.19S
$$

TNZ083-085-099-252300-
SOUTHEAST TENNESSEE

CITY           SKY/WX    TMP DP  RH WIND       PRES   REMARKS
CHATTANOOGA    MOSUNNY   81  57  43 N9        30.13F
$$

SKY/WX REPORTED AS FAIR MEANS FEW OR NO CLOUDS BELOW
12 THOUSAND FEET.





USA.gov is the U.S. government's official web portal to all federal, state and local government web resources and services.